Regional Weather Roundup
Issued by NWS

Home | Current Version | Previous Version | Text Only | Print | Product List | Glossary Off
Versions: 1 2 3 4 5 6 7 8 9 10 11 12 13 14 15 16 17 18 19 20 21 22 23 24 25 26 27 28 29 30 31 32 33 34 35 36 37 38 39 40 41 42 43 44 45 46 47 48 49 50

915
ASUS43 KLOT 092303
RWRIL

ILLINOIS REGIONAL WEATHER ROUNDUP
NATIONAL WEATHER SERVICE CHICAGO/ROMEOVILLE IL
500 PM CST TUE FEB 09 2016

NOTE: "FAIR" INDICATES FEW OR NO CLOUDS BELOW 12,000 FEET WITH NO
SIGNIFICANT WEATHER AND/OR OBSTRUCTIONS TO VISIBILITY.

* THESE STATIONS ARE NOT UNDER NWS QUALITY CONTROL. THEY ALSO MAY NOT
  REPORT WEATHER SUCH AS PRECIPITATION OR FOG.

ILZ001-002-007-009-015-016-024-100000-
NORTHWEST ILLINOIS

CITY           SKY/WX    TMP DP  RH WIND       PRES   REMARKS
MOLINE         CLOUDY    15   5  64 NW20G28   30.02R WCI  -2
STERLING*      CLOUDY    18   3  53 NW15G22   29.95R WCI   3
$$

ILZ003-004-008-010-011-017-018-100000-
NORTH CENTRAL ILLINOIS

CITY           SKY/WX    TMP DP  RH WIND       PRES   REMARKS
ROCKFORD       CLOUDY    15   6  67 NW10      29.96R WCI   2
FREEPORT*      CLOUDY    15   4  63 NW14      29.97R WCI   0
ROCHELLE*      CLOUDY    15   7  68 NW16G22   29.95R WCI   0
DE KALB*       LGT SNOW  15   9  76 NW14      29.92R WCI   0
$$

ILZ005-006-012>014-019>023-100000-
NORTHEAST ILLINOIS

CITY           SKY/WX    TMP DP  RH WIND       PRES   REMARKS
CHICAGO-OHARE  CLOUDY    17   7  64 NW14      29.90R WCI   3
CHICAGO-MIDWAY FLURRIES  18   6  59 NW14      29.91R WCI   4
AURORA         CLOUDY    18   9  68 NW17      29.92R WCI   3
WAUKEGAN       CLOUDY    16   7  67 NW10G18   29.89R WCI   4
DUPAGE AIRPORT FLURRIES  16   7  67 NW16      29.90R WCI   1
WHEELING       CLOUDY    17   7  64 NW13      29.91R WCI   4
MORRIS*        FLURRIES  18   9  70 NW12G18   29.91R WCI   5
$$

LMZ740>746-100000-
SOUTHERN LAKE MICHIGAN

STATION/POSITION SKY/WX   TEMP    WIND        PRES    VSBY  WAVE
                          AIR SEA DIR/SP/G                  HT/PER
                          (F)     (DEG/KT/KT) (MB)    (MI)  (FT/S)
HARRISON CRIB              18     310/ 15/ 17   N/A
BURNHAM HARBOR             18     310/ 13/ 15   N/A
CALUMET HARBOR             18     300/ 10/ 13 1011.4R
BURNS HARBOR               20     300/ 15/ 20 1011.9R
MICHIGAN CITY              20     260/ 23/ 25   N/A
$$

ILZ025>027-034>036-040-047-049-050-058-095>099-100000-
WEST-CENTRAL ILLINOIS

CITY           SKY/WX    TMP DP  RH WIND       PRES   REMARKS
QUINCY         CLEAR     19   6  57 NW16      30.06R WCI   4
MACOMB*        CLOUDY    18  11  73 NW23      30.06R WCI   1
$$

ILZ028>032-037-038-041>044-048-051>054-059>061-100000-
CENTRAL ILLINOIS

CITY           SKY/WX    TMP DP  RH WIND       PRES   REMARKS
BLOOMINGTON    LGT SNOW  17   9  71 NW17      29.97R WCI   1
DECATUR        CLOUDY    18   8  65 NW17G24   29.99R WCI   3
PEORIA         CLOUDY    17   6  62 NW14      30.01R WCI   3
LACON*         CLOUDY    17   8  67 NW13G23   29.99R WCI   3
LINCOLN*       CLOUDY    19  13  77 NW12G20   30.01R WCI   6
SPRINGFIELD    FLURRIES  19  10  68 NW16      30.03R WCI   4
TAYLORVILLE    NOT AVBL
$$

ILZ033-039-045-046-055>057-062-063-100000-
EAST-CENTRAL ILLINOIS

CITY           SKY/WX    TMP DP  RH WIND       PRES   REMARKS
CHAMPAIGN      LGT SNOW  18  11  74 NW20      29.96R WCI   2
MATTOON        CLOUDY    17  10  74 NW18      29.97S WCI   1
$$

ILZ079-100>102-100000-
SOUTHWEST ILLINOIS

CITY           SKY/WX    TMP DP  RH WIND       PRES   REMARKS
ALTON          MOCLDY    21  12  68 NW25      30.06R WCI   4
BELLEVILLE     PTCLDY    23  13  65 NW15G22   30.05R WCI  10
CAHOKIA*       PTCLDY    25  11  55 NW17      30.07R WCI  12
SPARTA*        CLOUDY    23  14  68 NW8       30.07R WCI  13
$$

ILZ064>066-069>071-074>076-080>082-084>086-088>090-092>094-100000-
SOUTH-CENTRAL ILLINOIS

CITY           SKY/WX    TMP DP  RH WIND       PRES   REMARKS
CARBONDALE     CLOUDY    22  13  68 NW8       30.07R WCI  12
MARION         CLOUDY    23  14  68 W12       30.08R WCI  12
MT. VERNON     CLOUDY    19   9  63 NW7       30.05R WCI  10
CENTRALIA*     FLURRIES  21  14  72 NW12G20   30.04R WCI  10
SALEM*         CLOUDY    21  10  61 NW15G22   30.04R WCI   8
$$

ILZ067-068-072-073-078-083-087-091-100000-
SOUTHEAST ILLINOIS

CITY           SKY/WX    TMP DP  RH WIND       PRES   REMARKS
LAWRENCEVILLE  FLURRIES  21  13  71 W15       30.01R WCI   8
HARRISBURG*    CLOUDY    21  14  73 NW12      30.07R WCI   9
$$

ABBREVIATIONS USED IN REMARKS
   TC - TEMPERATURE IN CELSIUS
  WCI - WIND CHILL INDEX
   HX - HEAT INDEX
  VSB - VISIBILITY
$$





USA.gov is the U.S. government's official web portal to all federal, state and local government web resources and services.